RH
100 100 100 100 76 53 51 79 90 100 100 100 100 100 100 96 78 56 35 46 58 41 40 38 44 46 41 40 42 27 24 24 34 71 99 100 100 100 100 100 100 100 100
90 100 99 81 68 54 70 85 100 99 100 100 100 100 100 90 71 53 33 40 40 38 39 40 47 48 49 52 41 42 26 28 28 26 29 32 47 70 84 90 98 100 100
99 100 85 69 71 64 87 100 100 100 100 100 100 100 99 80 68 47 36 39 46 42 42 45 52 53 53 52 54 43 34 27 27 27 27 26 24 25 31 47 62 73 90
100 97 77 69 69 99 100 100 100 100 100 100 100 100 90 74 61 44 47 40 43 39 44 54 63 67 75 76 71 64 53 36 30 27 25 27 26 22 23 26 32 42 52
100 91 95 90 100 100 100 100 100 100 100 100 100 99 80 70 48 43 44 37 37 38 54 68 73 76 84 82 78 74 56 50 57 56 52 52 48 39 31 26 26 25 34
100 98 100 100 100 100 100 94 79 98 100 100 100 88 72 51 40 36 35 40 45 52 60 69 85 90 82 82 83 88 81 68 57 56 60 59 58 53 45 41 38 33 30
92 94 95 96 100 100 86 88 99 100 100 100 96 76 51 37 34 39 44 51 54 66 83 86 100 95 93 96 91 88 89 85 73 73 79 73 61 59 50 38 43 46 48
90 88 93 92 75 79 92 100 100 100 100 97 81 53 38 37 38 51 57 50 56 66 90 100 100 100 95 91 95 91 93 81 75 77 82 83 79 69 63 46 42 41 43
66 67 64 62 66 86 100 100 100 100 91 83 61 42 34 37 41 48 44 42 86 100 100 100 100 100 97 100 100 100 97 82 81 92 89 83 81 73 53 53 55 43 35
86 79 80 92 100 100 100 100 100 84 73 60 48 40 32 36 41 38 50 46 100 100 100 100 100 100 100 100 100 100 98 76 87 83 81 90 85 79 78 58 38 33 41
100 100 100 100 100 100 100 98 82 71 50 39 39 38 30 36 37 33 42 83 100 100 100 100 100 97 98 97 99 94 90 72 76 98 84 76 80 74 41 44 55 54 39
100 100 100 100 100 100 99 86 80 55 42 41 37 39 43 51 53 58 43 100 100 100 100 100 96 89 100 100 99 95 73 66 71 68 63 65 57 51 77 80 55 48 29
100 98 100 100 98 84 78 80 65 46 36 33 44 55 53 62 61 59 54 94 100 100 100 98 79 99 94 100 89 71 58 64 65 61 53 44 51 66 54 59 54 32 19
100 98 95 89 80 75 77 62 42 32 31 52 64 70 80 65 65 61 75 94 100 100 100 75 91 100 100 91 85 56 62 73 71 49 43 54 49 48 46 38 23 19 13
80 79 74 66 72 68 49 39 30 30 56 67 73 79 77 78 75 79 76 94 100 100 91 100 100 100 94 90 74 67 70 62 53 42 44 42 34 34 28 20 15 13 12
77 80 69 58 43 36 38 33 41 90 100 88 81 83 73 86 80 90 94 100 100 94 100 100 100 95 100 75 54 58 59 64 47 37 33 29 24 22 17 14 12 12 13
78 68 59 50 54 48 43 48 100 100 93 77 84 65 83 71 76 86 100 100 99 100 100 100 100 100 93 62 52 61 56 40 35 32 23 18 17 16 12 11 12 13 13
69 73 67 62 54 51 45 87 98 79 68 57 51 73 75 79 84 100 100 100 98 100 100 100 100 98 62 48 46 46 33 29 23 18 15 14 13 12 11 12 12 11 12
78 80 60 52 51 54 89 82 78 64 49 58 82 96 88 94 100 100 100 100 100 100 100 100 100 69 40 37 39 29 23 16 14 13 12 12 11 10 11 12 11 11 10
83 63 58 60 64 71 77 63 60 53 80 96 100 100 100 100 100 100 100 100 100 100 100 100 84 53 34 31 25 20 13 12 12 11 10 11 10 10 11 10 10 10 11
74 72 82 88 94 70 55 55 61 87 100 100 100 100 100 100 100 100 100 100 100 100 100 82 63 31 28 22 15 12 11 9 9 10 10 10 10 10 9 10 10 11 10
68 78 98 88 57 60 63 84 99 100 100 100 100 100 100 100 100 100 100 100 99 97 73 47 33 27 18 12 10 9 8 8 8 9 9 10 10 9 10 11 12 11 11
72 75 70 75 65 55 87 100 100 100 100 100 100 100 100 100 100 100 100 84 82 71 46 28 25 16 9 8 7 8 8 8 8 8 8 9 10 10 11 13 13 13 13
76 81 72 52 80 100 100 100 100 100 100 100 100 100 100 100 100 100 93 70 44 32 28 24 15 7 7 7 7 7 7 8 8 8 9 10 11 11 14 14 14 15 16
92 81 84 97 100 100 100 100 100 100 100 100 100 98 100 100 95 92 61 36 27 23 19 12 7 6 6 6 7 7 8 8 9 9 10 11 11 14 16 17 17 18 19
99 100 100 100 100 100 100 100 100 100 100 100 100 100 100 88 86 53 29 25 22 17 10 7 6 6 6 6 7 7 8 10 10 10 12 11 15 17 19 21 22 21 21
Wind_Speed
50 53 51 50 57 58 52 54 57 56 60 56 54 52 53 57 59 63 60 61 63 63 63 63 64 67 71 67 56 48 43 45 49 69 73 79 82 82 82 82 85 84 77
56 55 54 55 60 56 51 54 56 57 61 57 54 59 60 60 62 61 61 61 62 63 66 66 67 68 74 70 71 45 45 46 51 57 62 67 77 85 88 92 93 93 93
57 56 60 57 57 55 53 54 56 58 58 56 61 60 62 62 63 60 62 62 64 66 69 69 71 74 73 79 77 68 41 42 46 50 57 66 75 79 86 94 98 102 101
60 62 62 59 57 53 52 55 55 58 60 64 65 63 62 63 62 63 64 66 67 70 71 72 74 77 76 82 82 81 69 62 58 58 59 61 68 78 85 89 96 100 106
62 61 58 58 55 52 53 56 62 63 63 65 64 62 64 63 64 65 68 69 69 72 73 75 76 80 81 85 88 86 86 76 71 67 67 67 68 71 75 81 87 97 102
66 60 55 57 56 55 58 64 63 65 66 63 64 64 64 63 66 66 68 69 73 74 75 78 79 85 88 91 93 94 89 85 78 75 71 67 66 66 66 70 78 83 87
64 62 60 60 59 63 65 63 65 64 62 64 64 66 63 65 65 67 72 75 77 78 79 82 89 91 94 96 97 100 97 94 89 85 80 76 73 71 69 66 63 67 74
66 66 61 61 64 64 63 66 62 61 64 66 67 67 66 67 68 71 76 78 79 81 86 87 97 100 101 102 103 107 103 101 91 87 84 81 77 75 74 69 63 59 62
66 62 61 65 65 64 66 63 60 65 67 68 71 70 68 70 72 75 77 79 80 86 90 97 102 104 106 108 110 111 111 106 93 88 86 84 81 79 75 72 70 69 63
71 70 70 65 61 63 60 61 65 66 68 72 72 70 70 72 77 80 84 85 84 90 96 103 106 107 109 110 112 115 115 105 93 88 85 84 83 81 78 75 72 70 71
72 67 59 61 61 58 62 65 66 68 71 75 73 75 74 75 80 84 89 87 86 93 101 105 106 110 111 112 115 120 115 102 91 88 87 85 81 80 74 75 79 79 78
63 63 64 61 60 64 68 68 68 71 76 76 78 80 80 82 87 92 95 90 93 98 103 108 112 116 116 117 121 122 118 101 91 89 87 85 80 76 82 82 81 81 78
63 61 62 66 68 69 70 72 73 76 77 78 81 84 84 86 90 95 98 96 101 107 112 114 119 120 122 124 131 127 117 107 98 94 90 86 83 83 80 83 84 79 74
64 64 67 70 72 73 74 76 79 78 77 78 83 89 92 94 97 99 101 102 106 114 119 121 124 126 128 136 137 129 117 108 102 98 92 89 86 85 84 80 74 74 71
67 67 69 71 72 76 80 83 80 78 78 83 88 92 97 99 101 104 106 110 112 119 122 124 129 132 136 142 138 127 115 107 102 98 94 92 90 88 82 75 72 67 64
70 71 72 74 78 78 80 82 84 84 86 89 93 97 102 105 108 111 113 117 120 123 128 131 134 139 139 143 133 123 113 105 102 99 95 93 89 82 76 72 67 62 60
73 76 78 78 79 83 83 82 84 88 92 94 97 100 104 107 110 113 115 123 129 131 132 137 138 143 146 140 128 115 109 104 100 99 97 90 82 76 71 67 63 60 56
79 79 79 81 83 83 84 84 89 91 94 98 100 104 107 111 115 112 122 129 132 133 138 142 145 148 146 136 121 111 106 102 99 95 89 82 75 71 67 62 60 57 53
79 81 84 83 84 85 88 92 95 98 100 103 109 110 112 114 115 128 130 132 135 138 143 146 145 150 141 123 113 107 102 99 93 87 81 74 70 65 61 58 55 53 52
86 87 86 86 87 88 93 97 101 103 108 111 113 115 116 117 127 130 136 142 142 142 146 147 152 150 128 115 107 104 100 92 85 79 73 68 65 60 57 54 51 50 47
90 90 91 93 94 98 99 103 105 109 110 112 117 118 121 131 135 137 140 141 146 148 150 153 156 132 118 109 104 98 91 85 78 71 65 62 59 56 51 49 48 45 43
92 94 94 99 101 103 107 110 111 112 115 117 119 126 134 136 136 142 144 149 150 152 158 152 132 115 107 101 94 86 81 75 69 64 60 57 53 49 47 45 43 41 40
94 97 99 102 106 107 109 113 114 118 118 125 130 135 137 138 146 149 151 154 157 158 150 127 115 106 98 89 83 76 71 67 63 59 54 50 47 44 43 40 38 38 37
98 101 105 109 109 109 113 116 117 125 130 134 136 137 144 150 152 154 157 160 155 143 125 111 105 95 85 79 74 69 64 60 57 53 49 46 43 40 38 36 36 35 35
107 110 111 110 111 114 116 120 129 132 138 134 142 152 151 153 156 158 160 155 137 119 107 98 92 84 76 70 67 63 59 55 51 47 44 42 39 36 35 35 34 34 34
110 109 112 114 117 119 125 130 138 136 136 151 150 153 154 158 161 159 148 131 115 105 96 88 81 74 68 64 60 57 52 48 45 42 41 37 34 33 33 33 33 34 34
Wind_Direction
290 291 298 302 307 313 309 310 312 312 311 307 306 306 311 317 324 327 327 328 327 328 331 333 339 340 345 343 339 312 297 286 267 252 259 265 267 268 271 272 269 270 266
294 289 295 302 308 309 306 308 310 310 310 306 300 306 312 321 326 326 327 327 328 328 328 332 337 340 343 343 343 323 306 293 280 275 273 272 270 269 269 268 270 270 271
290 288 296 303 306 304 306 307 307 309 308 300 303 308 316 322 323 324 325 326 326 326 328 334 337 340 339 342 341 339 309 303 298 286 274 268 268 270 268 268 267 266 266
284 289 298 302 303 301 305 307 308 309 304 301 303 308 319 321 321 323 324 323 324 325 328 332 333 335 335 338 339 338 331 320 316 304 291 283 273 266 264 264 263 263 264
292 296 299 301 298 300 303 303 307 308 306 303 303 312 318 319 321 323 322 324 324 325 326 329 328 333 334 334 335 336 335 326 320 314 306 296 291 286 278 270 267 264 260
291 294 297 297 297 298 298 303 306 307 304 300 308 316 317 318 321 321 322 323 325 325 324 326 329 329 332 332 333 333 330 327 321 315 311 303 296 291 286 281 278 276 270
289 292 294 294 293 295 302 304 305 302 298 306 313 316 317 319 318 319 320 322 323 324 324 328 329 328 329 330 330 331 329 324 321 318 314 311 306 300 295 289 280 274 274
288 290 290 291 295 300 302 302 298 294 304 311 312 314 315 316 317 316 318 322 323 326 328 326 327 327 328 329 330 329 327 325 321 320 318 313 310 305 304 299 294 285 277
292 290 292 295 297 298 299 294 292 303 310 309 310 312 313 314 315 315 318 320 324 325 328 325 326 326 328 327 328 328 327 324 321 320 315 313 310 308 306 304 299 291 283
290 290 293 295 296 294 291 291 303 309 309 307 308 310 311 314 314 316 321 325 326 327 325 324 324 325 325 325 325 327 326 323 320 320 316 314 310 309 306 301 298 299 297
289 292 291 290 292 288 291 300 305 307 306 306 306 308 311 312 314 318 320 328 325 324 321 322 322 323 323 324 325 326 325 323 321 317 315 314 310 306 304 308 307 302 297
285 288 291 290 286 289 297 302 303 304 305 305 307 309 312 316 318 320 320 327 324 320 322 321 322 323 324 325 325 325 324 323 320 316 316 312 309 313 312 307 304 302 297
285 288 287 287 290 295 300 299 300 301 303 306 310 311 314 317 318 319 322 323 320 320 321 321 322 324 323 324 325 325 326 324 323 319 316 314 316 313 310 309 306 299 294
284 285 286 291 295 297 297 296 298 301 303 308 311 313 317 317 318 320 322 320 318 318 319 321 322 323 325 325 325 326 325 323 318 317 315 314 313 312 310 306 300 297 295
284 285 286 289 293 293 295 297 299 302 309 311 312 313 314 316 318 319 319 319 318 318 318 319 322 324 323 326 326 325 322 318 316 315 315 314 313 311 308 304 300 298 295
284 285 287 289 289 293 296 299 303 308 308 310 311 312 313 316 318 318 317 317 317 317 320 323 321 322 324 325 323 321 318 316 314 313 312 312 310 307 305 301 300 298 295
285 288 290 293 295 297 298 302 305 305 307 309 310 311 314 315 317 315 312 313 317 320 320 320 321 321 322 324 321 317 314 313 312 311 309 308 307 306 302 300 299 296 294
285 288 291 292 293 296 301 303 301 304 306 308 310 312 314 315 315 312 312 315 318 318 318 320 320 322 321 319 316 313 311 311 310 308 307 308 306 303 301 300 297 296 297
286 288 290 293 296 300 303 301 302 303 306 310 311 313 313 313 313 314 315 315 316 315 317 318 320 320 317 315 312 311 309 309 308 308 308 306 304 302 300 298 297 297 295
287 290 294 296 299 301 301 301 302 306 310 311 311 309 311 311 313 312 312 314 313 314 314 316 317 317 314 312 311 310 308 307 306 306 305 304 303 302 299 298 299 298 295
291 293 296 298 298 298 300 304 306 307 307 307 308 311 311 311 310 311 312 311 311 312 314 316 315 315 312 311 309 308 306 305 305 304 303 302 302 300 300 300 299 297 296
290 293 295 295 297 300 303 305 304 303 305 308 309 308 308 309 308 308 309 309 311 313 315 316 313 311 310 309 307 305 304 303 302 302 301 301 300 301 300 299 297 298 299
288 290 293 296 298 301 302 302 302 303 305 306 306 305 306 306 306 308 309 311 313 313 313 313 311 309 308 307 305 304 303 302 301 301 300 299 300 299 298 297 298 299 300
291 290 293 295 295 294 296 299 300 302 304 304 305 304 304 306 307 308 310 312 315 314 313 310 308 308 307 305 303 303 303 301 300 299 300 300 298 298 297 296 298 299 301
289 290 290 290 292 294 296 297 299 300 302 302 302 304 305 305 307 309 311 312 312 311 310 309 308 307 305 304 304 303 302 300 299 299 300 298 298 297 296 298 298 299 299
289 290 290 289 292 293 295 295 297 299 299 301 302 303 304 306 309 310 311 311 310 311 310 309 307 306 306 305 303 301 300 299 298 299 297 297 297 296 297 297 297 298 300